Location: Mladá Boleslav
(50.4134°N, 14.9084°E)
Time: 20:09:56
(UTC+02:00)

QB50P2 - Visible Passes

Search period start: 26 May 2024 00:00
Search period end: 05 June 2024 00:00
Orbit: 567 x 578 km, 98.0° (Epoch: 25 May)

Date Brightness Start Highest point End Pass type
(mag) Time Alt. Az. Time Alt. Az. Time Alt. Az.
26 May ? 02:51:47 10° NE 02:54:57 21° E 02:58:05 10° SE visible
27 May ? 02:54:20 10° NE 02:57:35 22° E 03:00:48 10° SE visible
28 May ? 02:56:52 10° NE 03:00:13 23° E 03:03:30 10° SSE visible
29 May ? 02:59:25 10° NE 03:02:49 25° E 03:06:11 10° SSE visible
30 May ? 03:01:57 10° NE 03:05:24 26° E 03:08:50 10° SSE visible
31 May ? 03:04:27 10° NE 03:07:59 27° E 03:11:28 10° SSE visible
01 Jun ? 03:06:57 10° NE 03:10:32 29° E 03:14:05 10° SSE visible
02 Jun ? 03:09:25 10° NNE 03:13:04 30° E 03:16:40 10° SSE visible
03 Jun ? 03:11:54 10° NNE 03:15:35 32° E 03:19:14 10° SSE visible
04 Jun ? 03:14:22 10° NNE 03:18:05 34° E 03:21:47 10° SSE visible
